Location: Cheyres
(46.8153°N, 6.7877°E)
Time: 16:49:54
(UTC+00:00)

QB50P2 - Pass Details

Date: 02 July 2022
Orbit: 590 x 605 km, 97.9° (Epoch: 18 August)

Event Time Altitude Azimuth Distance (km) Brightness Sun altitude
Rises 01:50:35 0° 4° (N) 2,862 ? -13.9°
Reaches altitude 10° 01:52:56 10° 354° (N) 1,957 ? -13.7°
Maximum altitude 01:56:40 30° 293° (WNW) 1,082 ? -13.3°
Enters shadow 01:59:12 17° 242° (WSW) 1,548 ? -13.1°
